This is the latest recevied weather packets stored in our database for station/object OE9FWV-10. If no packets are shown the sender has not sent any weather packets the latest 10 day(s).
| Time | Temp. | Humidity | Pressure | Rain* | Wind** | Luminosity | Snow |
|---|---|---|---|---|---|---|---|
| 1787396732 | 27.78° C | 32% | 1023 hPa | - | - | - | - |
| 1787395831 | 27.78° C | 32% | 1022.9 hPa | - | - | - | - |
| 1787394930 | 27.22° C | 33% | 1023 hPa | - | - | - | - |
| 1787394029 | 27.22° C | 34% | 1023.1 hPa | - | - | - | - |
| 1787393128 | 26.67° C | 34% | 1023.1 hPa | - | - | - | - |
| 1787392228 | 26.67° C | 34% | 1023.2 hPa | - | - | - | - |
| 1787391327 | 26.11° C | 35% | 1023.2 hPa | - | - | - | - |
| 1787390427 | 25.56° C | 35% | 1023.1 hPa | - | - | - | - |
| 1787389526 | 26.11° C | 35% | 1023.2 hPa | - | - | - | - |
| 1787388626 | 25.56° C | 36% | 1023.1 hPa | - | - | - | - |
| 1787387725 | 25.56° C | 36% | 1023 hPa | - | - | - | - |
| 1787386825 | 25° C | 36% | 1023 hPa | - | - | - | - |
| 1787385924 | 25.56° C | 36% | 1022.7 hPa | - | - | - | - |
| 1787385023 | 25° C | 36% | 1022.6 hPa | - | - | - | - |
| 1787384122 | 25° C | 37% | 1022.6 hPa | - | - | - | - |
| 1787383221 | 25° C | 37% | 1022.7 hPa | - | - | - | - |
| 1787382321 | 25° C | 38% | 1022.5 hPa | - | - | - | - |
| 1787381420 | 25° C | 38% | 1022.4 hPa | - | - | - | - |
| 1787380519 | 25° C | 39% | 1022.6 hPa | - | - | - | - |
| 1787379618 | 25° C | 39% | 1022.9 hPa | - | - | - | - |
| 1787378718 | 24.44° C | 39% | 1022.5 hPa | - | - | - | - |
| 1787377818 | 25° C | 39% | 1022.2 hPa | - | - | - | - |
| 1787376917 | 24.44° C | 39% | 1022.2 hPa | - | - | - | - |
| 1787376016 | 25° C | 39% | 1021.7 hPa | - | - | - | - |
| 1787375115 | 24.44° C | 39% | 1021.3 hPa | - | - | - | - |
* Rain since midnight (hover to see other rain measurements)
** Current wind speed in m/s (hover to see current wind gust speed)